Time,TemperatureF,DewpointF,PressureIn,WindDirection,WindDirectionDegrees,WindSpeedMPH,WindSpeedGustMPH,Humidity,HourlyPrecipIn,Conditions,Clouds,dailyrainin,SoftwareType,DateUTC
2013-01-23 00:02:00,13.0,5.0,30.17,NNW,347,1.0,2.0,70,0.00,,,0.02,,2013-01-23 07:02:00,
2013-01-23 00:11:00,13.0,5.0,30.17,NNW,347,1.0,2.0,70,0.00,,,0.02,,2013-01-23 07:11:00,
2013-01-23 00:22:00,12.0,4.0,30.16,NNW,347,0.0,0.0,71,0.00,,,0.02,,2013-01-23 07:22:00,
2013-01-23 00:32:00,12.0,4.0,30.14,NNW,347,0.0,0.0,71,0.00,,,0.02,,2013-01-23 07:32:00,
2013-01-23 00:52:00,11.0,4.0,30.15,East,88,0.0,2.0,72,0.00,,,0.02,,2013-01-23 07:52:00,
2013-01-23 01:01:00,11.0,3.0,30.14,East,88,0.0,2.0,71,0.00,,,0.02,,2013-01-23 08:01:00,
2013-01-23 01:22:00,11.0,4.0,30.12,East,88,0.0,1.0,72,0.00,,,0.02,,2013-01-23 08:22:00,
2013-01-23 01:32:00,10.0,3.0,30.11,East,88,0.0,2.0,72,0.00,,,0.02,,2013-01-23 08:32:00,
2013-01-23 01:53:00,10.0,3.0,30.09,East,89,1.0,2.0,72,0.00,,,0.02,,2013-01-23 08:53:00,
2013-01-23 02:02:00,10.0,3.0,30.11,East,88,0.0,1.0,72,0.00,,,0.02,,2013-01-23 09:02:00,
2013-01-23 02:12:00,10.0,3.0,30.11,East,88,0.0,1.0,72,0.00,,,0.02,,2013-01-23 09:12:00,
2013-01-23 02:22:00,10.0,3.0,30.12,East,88,0.0,1.0,71,0.00,,,0.02,,2013-01-23 09:22:00,
2013-01-23 02:32:00,10.0,3.0,30.14,East,86,1.0,2.0,72,0.00,,,0.02,,2013-01-23 09:32:00,
2013-01-23 02:53:00,9.0,2.0,30.15,East,86,0.0,1.0,72,0.00,,,0.02,,2013-01-23 09:53:00,
2013-01-23 03:02:00,9.0,2.0,30.15,ESE,102,1.0,3.0,73,0.00,,,0.02,,2013-01-23 10:02:00,
2013-01-23 03:22:00,10.0,3.0,30.14,ESE,102,2.0,3.0,71,0.00,,,0.02,,2013-01-23 10:22:00,
2013-01-23 03:32:00,10.0,3.0,30.13,ESE,102,0.0,0.0,73,0.00,,,0.02,,2013-01-23 10:32:00,
2013-01-23 03:53:00,10.0,3.0,30.12,ESE,102,0.0,3.0,72,0.00,,,0.02,,2013-01-23 10:53:00,
2013-01-23 04:01:00,9.0,2.0,30.14,ESE,102,0.0,0.0,72,0.00,,,0.02,,2013-01-23 11:01:00,
2013-01-23 04:11:00,9.0,2.0,30.14,ESE,102,0.0,0.0,72,0.00,,,0.02,,2013-01-23 11:11:00,
2013-01-23 04:22:00,10.0,3.0,30.14,ESE,102,0.0,2.0,72,0.00,,,0.02,,2013-01-23 11:22:00,
2013-01-23 04:32:00,10.0,3.0,30.17,ESE,102,0.0,0.0,72,0.00,,,0.02,,2013-01-23 11:32:00,
2013-01-23 04:53:00,10.0,3.0,30.16,ESE,102,0.0,0.0,72,0.00,,,0.02,,2013-01-23 11:53:00,
2013-01-23 05:02:00,10.0,3.0,30.16,ESE,102,0.0,0.0,72,0.00,,,0.02,,2013-01-23 12:02:00,
2013-01-23 05:12:00,10.0,3.0,30.16,ESE,102,0.0,0.0,72,0.00,,,0.02,,2013-01-23 12:12:00,
2013-01-23 05:22:00,9.0,2.0,30.21,East,99,0.0,0.0,71,0.00,,,0.02,,2013-01-23 12:22:00,
2013-01-23 05:33:00,9.0,2.0,30.21,East,99,0.0,0.0,72,0.00,,,0.02,,2013-01-23 12:33:00,
2013-01-23 05:53:00,9.0,2.0,30.22,East,99,0.0,3.0,71,0.00,,,0.02,,2013-01-23 12:53:00,
2013-01-23 06:03:00,9.0,2.0,30.21,East,99,0.0,0.0,71,0.00,,,0.02,,2013-01-23 13:03:00,
2013-01-23 06:22:00,9.0,2.0,30.23,East,97,0.0,0.0,71,0.00,,,0.02,,2013-01-23 13:22:00,
2013-01-23 06:33:00,8.0,1.0,30.25,East,97,0.0,0.0,71,0.00,,,0.02,,2013-01-23 13:33:00,
2013-01-23 06:53:00,9.0,2.0,30.22,East,97,0.0,0.0,71,0.00,,,0.02,,2013-01-23 13:53:00,
2013-01-23 07:02:00,10.0,3.0,30.23,East,97,1.0,3.0,71,0.00,,,0.02,,2013-01-23 14:02:00,
2013-01-23 07:11:00,10.0,3.0,30.23,East,97,1.0,3.0,71,0.00,,,0.02,,2013-01-23 14:11:00,
2013-01-23 07:23:00,9.0,2.0,30.26,East,97,0.0,0.0,72,0.00,,,0.02,,2013-01-23 14:23:00,
2013-01-23 07:33:00,10.0,3.0,30.24,East,97,0.0,2.0,72,0.00,,,0.02,,2013-01-23 14:33:00,
2013-01-23 07:42:00,10.0,3.0,30.24,East,97,0.0,2.0,72,0.00,,,0.02,,2013-01-23 14:42:00,
2013-01-23 07:53:00,10.0,3.0,30.23,East,97,0.0,0.0,71,0.00,,,0.02,,2013-01-23 14:53:00,
2013-01-23 08:02:00,9.0,2.0,30.25,East,97,0.0,2.0,71,0.00,,,0.02,,2013-01-23 15:02:00,
2013-01-23 08:22:00,9.0,2.0,30.27,East,97,0.0,0.0,71,0.00,,,0.02,,2013-01-23 15:22:00,
2013-01-23 08:32:00,10.0,3.0,30.27,East,97,0.0,0.0,72,0.00,,,0.02,,2013-01-23 15:32:00,
2013-01-23 08:53:00,10.0,3.0,30.27,East,97,0.0,0.0,71,0.00,,,0.02,,2013-01-23 15:53:00,
2013-01-23 09:02:00,12.0,4.0,30.25,East,97,0.0,0.0,69,0.00,,,0.02,,2013-01-23 16:02:00,
2013-01-23 09:11:00,12.0,4.0,30.25,East,97,0.0,0.0,69,0.00,,,0.02,,2013-01-23 16:11:00,
2013-01-23 09:22:00,12.0,4.0,30.27,East,97,0.0,0.0,69,0.00,,,0.02,,2013-01-23 16:22:00,
2013-01-23 09:32:00,13.0,4.0,30.26,East,97,0.0,0.0,68,0.00,,,0.02,,2013-01-23 16:32:00,
2013-01-23 09:42:00,13.0,4.0,30.26,East,97,0.0,0.0,68,0.00,,,0.02,,2013-01-23 16:42:00,
2013-01-23 09:52:00,13.0,4.0,30.25,East,97,1.0,2.0,67,0.00,,,0.02,,2013-01-23 16:52:00,
2013-01-23 10:02:00,15.0,6.0,30.24,East,97,0.0,0.0,67,0.00,,,0.02,,2013-01-23 17:02:00,
2013-01-23 10:11:00,15.0,6.0,30.24,East,97,0.0,0.0,67,0.00,,,0.02,,2013-01-23 17:11:00,
2013-01-23 10:22:00,16.0,6.0,30.25,East,97,1.0,2.0,64,0.00,,,0.02,,2013-01-23 17:22:00,
2013-01-23 10:33:00,17.0,7.0,30.24,East,97,0.0,0.0,64,0.00,,,0.02,,2013-01-23 17:33:00,
2013-01-23 10:42:00,17.0,7.0,30.24,East,97,0.0,0.0,64,0.00,,,0.02,,2013-01-23 17:42:00,
2013-01-23 10:53:00,18.0,8.0,30.23,East,97,0.0,3.0,64,0.00,,,0.02,,2013-01-23 17:53:00,
2013-01-23 11:02:00,20.0,9.0,30.22,East,97,0.0,0.0,63,0.00,,,0.02,,2013-01-23 18:02:00,
2013-01-23 11:12:00,20.0,9.0,30.22,East,97,0.0,0.0,63,0.00,,,0.02,,2013-01-23 18:12:00,
2013-01-23 11:22:00,21.0,10.0,30.21,East,97,0.0,0.0,63,0.00,,,0.02,,2013-01-23 18:22:00,
2013-01-23 11:42:00,23.0,11.0,30.20,East,97,0.0,0.0,60,0.00,,,0.02,,2013-01-23 18:42:00,
2013-01-23 11:53:00,23.0,10.0,30.20,East,97,1.0,3.0,58,0.00,,,0.02,,2013-01-23 18:53:00,
2013-01-23 12:02:00,25.0,11.0,30.18,East,97,0.0,0.0,55,0.00,,,0.02,,2013-01-23 19:02:00,
2013-01-23 12:12:00,25.0,11.0,30.18,East,97,0.0,0.0,55,0.00,,,0.02,,2013-01-23 19:12:00,
2013-01-23 12:22:00,27.0,12.0,30.16,East,97,0.0,1.0,53,0.00,,,0.02,,2013-01-23 19:22:00,
2013-01-23 12:32:00,30.0,15.0,30.13,East,97,0.0,0.0,53,0.00,,,0.02,,2013-01-23 19:32:00,
2013-01-23 12:42:00,30.0,15.0,30.13,East,97,0.0,0.0,53,0.00,,,0.02,,2013-01-23 19:42:00,
2013-01-23 12:53:00,32.0,14.0,30.11,East,97,0.0,0.0,46,0.00,,,0.02,,2013-01-23 19:53:00,
2013-01-23 13:02:00,33.0,14.0,30.09,East,97,0.0,0.0,45,0.00,,,0.02,,2013-01-23 20:02:00,
2013-01-23 13:12:00,33.0,14.0,30.09,East,97,0.0,0.0,45,0.00,,,0.02,,2013-01-23 20:12:00,
2013-01-23 13:22:00,35.0,13.0,30.07,East,97,0.0,0.0,40,0.00,,,0.02,,2013-01-23 20:22:00,
2013-01-23 13:32:00,35.0,15.0,30.08,East,90,0.0,0.0,43,0.00,,,0.02,,2013-01-23 20:32:00,
2013-01-23 13:42:00,35.0,15.0,30.08,East,90,0.0,0.0,43,0.00,,,0.02,,2013-01-23 20:42:00,
2013-01-23 13:53:00,39.0,14.0,30.04,East,90,0.0,0.0,36,0.00,,,0.02,,2013-01-23 20:53:00,
2013-01-23 14:02:00,40.0,13.0,30.03,East,90,0.0,0.0,33,0.00,,,0.02,,2013-01-23 21:02:00,
2013-01-23 14:12:00,40.0,13.0,30.03,East,90,0.0,0.0,33,0.00,,,0.02,,2013-01-23 21:12:00,
2013-01-23 14:22:00,41.0,13.0,30.02,East,90,0.0,0.0,32,0.00,,,0.01,,2013-01-23 21:22:00,
2013-01-23 14:32:00,43.0,12.0,30.01,East,90,0.0,0.0,28,0.00,,,0.01,,2013-01-23 21:32:00,
2013-01-23 14:42:00,43.0,12.0,30.01,East,90,0.0,0.0,28,0.00,,,0.01,,2013-01-23 21:42:00,
2013-01-23 14:53:00,43.0,12.0,30.01,East,90,0.0,0.0,28,0.00,,,0.01,,2013-01-23 21:53:00,
2013-01-23 15:02:00,43.0,12.0,30.01,East,92,0.0,0.0,28,0.00,,,0.01,,2013-01-23 22:02:00,
2013-01-23 15:12:00,43.0,12.0,30.01,East,92,0.0,0.0,28,0.00,,,0.01,,2013-01-23 22:12:00,
2013-01-23 15:22:00,44.0,15.0,29.99,SE,141,0.0,0.0,31,0.00,,,0.01,,2013-01-23 22:22:00,
2013-01-23 15:32:00,43.0,14.0,30.00,SE,141,0.0,0.0,31,0.00,,,0.01,,2013-01-23 22:32:00,
2013-01-23 15:42:00,43.0,14.0,30.00,SE,141,0.0,0.0,31,0.00,,,0.01,,2013-01-23 22:42:00,
2013-01-23 15:53:00,44.0,15.0,29.99,SE,141,0.0,0.0,31,0.00,,,0.01,,2013-01-23 22:53:00,
2013-01-23 16:02:00,45.0,14.0,29.99,SE,141,0.0,0.0,28,0.00,,,0.01,,2013-01-23 23:02:00,
2013-01-23 16:12:00,45.0,14.0,29.99,SE,141,0.0,0.0,28,0.00,,,0.01,,2013-01-23 23:12:00,
2013-01-23 16:22:00,43.0,16.0,30.01,SE,141,0.0,0.0,33,0.00,,,0.01,,2013-01-23 23:22:00,
2013-01-23 16:32:00,41.0,17.0,30.02,SE,141,0.0,0.0,37,0.00,,,0.01,,2013-01-23 23:32:00,
2013-01-23 16:42:00,41.0,17.0,30.02,SE,141,0.0,0.0,37,0.00,,,0.01,,2013-01-23 23:42:00,
2013-01-23 16:53:00,41.0,15.0,30.02,SE,141,0.0,0.0,35,0.00,,,0.01,,2013-01-23 23:53:00,
2013-01-23 17:02:00,40.0,18.0,30.03,SE,141,0.0,0.0,40,0.00,,,0.01,,2013-01-24 00:02:00,
2013-01-23 17:11:00,40.0,18.0,30.03,SE,141,0.0,0.0,40,0.00,,,0.01,,2013-01-24 00:11:00,
2013-01-23 17:22:00,39.0,18.0,30.03,SE,141,0.0,0.0,42,0.00,,,0.01,,2013-01-24 00:22:00,
2013-01-23 17:32:00,38.0,19.0,30.05,SE,141,0.0,0.0,45,0.00,,,0.01,,2013-01-24 00:32:00,
2013-01-23 17:42:00,38.0,19.0,30.05,SE,141,0.0,0.0,45,0.00,,,0.01,,2013-01-24 00:42:00,
2013-01-23 17:53:00,36.0,19.0,30.06,SE,143,0.0,0.0,49,0.00,,,0.00,,2013-01-24 00:53:00,
2013-01-23 18:02:00,35.0,19.0,30.06,SE,143,0.0,0.0,51,0.00,,,0.00,,2013-01-24 01:02:00,
2013-01-23 18:12:00,35.0,19.0,30.06,SE,143,0.0,0.0,51,0.00,,,0.00,,2013-01-24 01:12:00,
2013-01-23 18:22:00,35.0,20.0,30.06,SE,141,0.0,0.0,53,0.00,,,0.00,,2013-01-24 01:22:00,
2013-01-23 18:32:00,34.0,18.0,30.06,SE,141,0.0,0.0,52,0.00,,,0.00,,2013-01-24 01:32:00,
2013-01-23 18:42:00,34.0,18.0,30.06,SE,141,0.0,0.0,52,0.00,,,0.00,,2013-01-24 01:42:00,
2013-01-23 18:52:00,34.0,19.0,30.06,SE,141,0.0,0.0,54,0.00,,,0.00,,2013-01-24 01:52:00,
2013-01-23 19:02:00,32.0,19.0,30.09,SE,143,0.0,0.0,58,0.00,,,0.00,,2013-01-24 02:02:00,
2013-01-23 19:11:00,32.0,19.0,30.09,SE,143,0.0,0.0,58,0.00,,,0.00,,2013-01-24 02:11:00,
2013-01-23 19:22:00,32.0,19.0,30.09,SE,141,0.0,0.0,59,0.00,,,0.00,,2013-01-24 02:22:00,
2013-01-23 19:32:00,31.0,18.0,30.08,SE,141,0.0,0.0,59,0.00,,,0.00,,2013-01-24 02:32:00,
2013-01-23 19:42:00,31.0,18.0,30.08,SE,141,0.0,0.0,59,0.00,,,0.00,,2013-01-24 02:42:00,
2013-01-23 19:52:00,31.0,18.0,30.08,SE,141,0.0,0.0,59,0.00,,,0.00,,2013-01-24 02:52:00,
2013-01-23 20:02:00,30.0,18.0,30.10,SE,141,0.0,0.0,60,0.00,,,0.00,,2013-01-24 03:02:00,
2013-01-23 20:11:00,30.0,18.0,30.10,SE,141,0.0,0.0,60,0.00,,,0.00,,2013-01-24 03:11:00,
2013-01-23 20:22:00,30.0,18.0,30.10,SE,141,0.0,0.0,60,0.00,,,0.00,,2013-01-24 03:22:00,
2013-01-23 20:32:00,29.0,17.0,30.09,SE,141,0.0,0.0,61,0.00,,,0.00,,2013-01-24 03:32:00,
2013-01-23 20:42:00,29.0,17.0,30.09,SE,141,0.0,0.0,61,0.00,,,0.00,,2013-01-24 03:42:00,
2013-01-23 20:52:00,28.0,16.0,30.09,SE,141,0.0,0.0,61,0.00,,,0.00,,2013-01-24 03:52:00,
2013-01-23 21:02:00,28.0,17.0,30.09,SE,141,0.0,0.0,64,0.00,,,0.00,,2013-01-24 04:02:00,
2013-01-23 21:12:00,28.0,17.0,30.09,SE,141,0.0,0.0,64,0.00,,,0.00,,2013-01-24 04:12:00,
2013-01-23 21:22:00,26.0,16.0,30.08,SE,141,0.0,0.0,65,0.00,,,0.00,,2013-01-24 04:22:00,
2013-01-23 21:32:00,26.0,17.0,30.08,SE,141,0.0,0.0,67,0.00,,,0.00,,2013-01-24 04:32:00,
2013-01-23 21:42:00,26.0,17.0,30.08,SE,141,0.0,0.0,67,0.00,,,0.00,,2013-01-24 04:42:00,
2013-01-23 21:52:00,26.0,16.0,30.08,SE,141,0.0,0.0,66,0.00,,,0.00,,2013-01-24 04:52:00,
2013-01-23 22:02:00,26.0,17.0,30.09,SE,141,0.0,0.0,67,0.00,,,0.00,,2013-01-24 05:02:00,
2013-01-23 22:12:00,26.0,17.0,30.09,SE,141,0.0,0.0,67,0.00,,,0.00,,2013-01-24 05:12:00,
2013-01-23 22:22:00,25.0,15.0,30.06,SE,141,0.0,0.0,66,0.00,,,0.00,,2013-01-24 05:22:00,
2013-01-23 22:32:00,25.0,16.0,30.06,SE,141,0.0,0.0,67,0.00,,,0.00,,2013-01-24 05:32:00,
2013-01-23 22:42:00,25.0,16.0,30.06,SE,141,0.0,0.0,67,0.00,,,0.00,,2013-01-24 05:42:00,
2013-01-23 22:53:00,25.0,16.0,30.05,SE,141,0.0,0.0,67,0.00,,,0.00,,2013-01-24 05:53:00,
2013-01-23 23:02:00,25.0,16.0,30.05,SE,141,0.0,0.0,67,0.00,,,0.00,,2013-01-24 06:02:00,
2013-01-23 23:12:00,25.0,16.0,30.05,SE,141,0.0,0.0,67,0.00,,,0.00,,2013-01-24 06:12:00,
2013-01-23 23:22:00,24.0,15.0,30.07,SE,141,0.0,0.0,68,0.00,,,0.00,,2013-01-24 06:22:00,
2013-01-23 23:32:00,24.0,15.0,30.03,SE,141,0.0,0.0,67,0.00,,,0.00,,2013-01-24 06:32:00,
2013-01-23 23:42:00,24.0,15.0,30.03,SE,141,0.0,0.0,67,0.00,,,0.00,,2013-01-24 06:42:00,
2013-01-23 23:52:00,24.0,15.0,30.03,SE,141,0.0,0.0,67,0.00,,,0.00,,2013-01-24 06:52:00,